Terug naar catalogus

COSMOS 1193

ActiefMilitairLEO
NORAD 11876·PAYLOAD·🇷🇺 Russia

Gelanceerd Jul 9, 1980 vanaf Plesetsk Cosmodrome

Loading…

Volgende Passages (komende 24 uur)

TLE

VersSource: Space-Track

Epoch: Sep 14, 2026, 06:25 UTC

1 11876U 80058B   26257.26797182  .00000000  00000-0  97643-4 0  9991
2 11876  74.0223 351.2980 0038411 103.7400 270.8344 12.54953953115688

Volg COSMOS 1193 in realtime met AllMySat

Download on the App Store